Regional Weather Roundup
Issued by NWS Boston, MA

Current Version | Previous Version | Text Only | Print | Product List | Glossary Off
Versions: 1 2 3 4 5 6 7 8 9 10 11 12 13 14 15 16 17 18 19 20 21 22 23 24 25 26 27 28 29 30 31 32 33 34 35 36 37 38 39 40 41 42 43 44 45 46 47 48 49 50
000 ASUS41 KBOX 171310 RWRBOX REGIONAL WEATHER ROUNDUP NATIONAL WEATHER SERVICE TAUNTON MA 900 AM EDT TUE OCT 17 2017 NOTE: "FAIR" INDICATES FEW OR NO CLOUDS BELOW 12,000 FEET WITH NO SIGNIFICANT WEATHER AND/OR OBSTRUCTIONS TO VISIBILITY. MAZALL-171400- EASTERN MASSACHUSETTS CITY SKY/WX TMP DP RH WIND PRES REMARKS BOSTON MOSUNNY 45 33 63 NW10 30.30R BEVERLY MOSUNNY 43 35 73 NW8 30.29R LAWRENCE SUNNY 44 34 67 NW7 30.31R BEDFORD SUNNY 42 32 67 NW7 30.29R BLUE HILL N/A 41 32 70 NW7 30.27R NORWOOD SUNNY 46 35 65 NW3 30.30R MARSHFIELD MOSUNNY 48 39 71 W6 30.28R PLYMOUTH SUNNY 47 36 65 N9 30.28R TAUNTON SUNNY 45 33 63 N6 30.29R NEW BEDFORD SUNNY 44 34 67 N7 30.28R $$ MAZALL-171400- CAPE COD AND THE ISLANDS CITY SKY/WX TMP DP RH WIND PRES REMARKS FALMOUTH SUNNY 46 37 71 NW8 30.27S HYANNIS MOSUNNY 51 34 52 N13G22 30.24R CHATHAM SUNNY 51 34 52 VRB7G20 30.26R PROVINCETOWN MOSUNNY 51 33 50 N14 30.27R NANTUCKET MOSUNNY 51 35 54 N17 30.25R MARTHAS VNYRD SUNNY 49 39 68 N12G18 30.26R $$ MAZALL-171400- CENTRAL AND WESTERN MASSACHUSETTS CITY SKY/WX TMP DP RH WIND PRES REMARKS WORCESTER SUNNY 40 27 59 NW9 30.28R FITCHBURG SUNNY 47 34 60 NW7 30.31R ORANGE SUNNY 34 33 96 CALM 30.32R SPRINGFIELD NOT AVBL WESTFIELD SUNNY 41 34 76 CALM 30.33R NORTH ADAMS PTSUNNY 32 32 100 NW3 30.33S FOG PITTSFIELD SUNNY 36 30 79 CALM 30.29R $$ RIZALL-171400- RHODE ISLAND CITY SKY/WX TMP DP RH WIND PRES REMARKS PROVIDENCE MOSUNNY 44 34 67 N12 30.31R NEWPORT SUNNY 45 36 70 N12 30.29R BLOCK ISLAND SUNNY 46 36 68 N10G18 30.30R SMITHFIELD SUNNY 41 33 73 N8 30.30R WESTERLY SUNNY 45 32 60 N7 30.31R $$ CTZALL-171400- CONNECTICUT CITY SKY/WX TMP DP RH WIND PRES REMARKS BRADLEY INTL SUNNY 43 32 65 N8 30.33R HARTFORD SUNNY 42 34 73 E3 30.34R BRIDGEPORT SUNNY 45 33 63 N12 30.34R DANBURY SUNNY 44 32 62 N10 30.35R GROTON SUNNY 44 33 65 N12 30.31R NEW HAVEN MOSUNNY 44 35 70 N8 30.34R CHESTER FAIR 45 32 61 N9 30.32R MERIDEN SUNNY 44 33 65 N6 30.34R WILLIMANTIC SUNNY 42 34 73 CALM 30.33R OXFORD SUNNY 40 32 73 NW5 30.33R $$ MEZ002-015-021-024-NHZ003-005-008-011-012-014-VTZ005-008-171400- NORTHERN NEW ENGLAND CITY SKY/WX TMP DP RH WIND PRES REMARKS PORTLAND ME MOSUNNY 43 33 68 VRB7 30.28R BANGOR ME SUNNY 40 31 70 W6 30.24R CONCORD NH SUNNY 39 35 86 CALM 30.30R MANCHESTER NH SUNNY 43 31 62 N7 30.29R NASHUA NH SUNNY 42 32 67 NW9 30.31R PORTSMOUTH NH NOT AVBL JAFFREY NH SUNNY 39 33 79 CALM 30.29R KEENE NH SUNNY 35 33 92 CALM 30.33R BURLINGTON VT MOSUNNY 39 33 79 S8 30.30R MT. WASHINGTON MOSUNNY 21 10 63 NW33G41 N/A WCI 2 $$ NYZ052-076-171400- EASTERN NEW YORK CITY SKY/WX TMP DP RH WIND PRES REMARKS ALBANY MOSUNNY 38 32 79 CALM 30.35R NEW YORK CITY MOSUNNY 47 33 58 N14 30.35R $$ ANZALL-171400- MARINE OBSERVATIONS STATION/POSITION TIME TEMP WIND PRES VSBY WAVE AIR SEA DIR/SP/G HT/PER (UTC) (F) (DEG/KT/KT) (MB) (MI) (FT/S) BOSTON BUOY 1150 47 59 340/ 16/ 19 1023.3 4/ 6 BUZZARDS BAY 1200 45 360/ 21/ 23 1024.8R NANTUCKET SOUND 1150 51 62 10/ 19/ 25 1023.0 3/ 4 MASS BAY-STELLWA 1204 46 60 340/ 14/ 17 1023.9R 4/ 5 ISLE OF SHOALS 1200 43 320/ 14/ 15 1024.8R S OF BLOCK IS NOT AVBL $$ ......................KEY......................... SKY/WX - SKY CONDITION/PRESENT WEATHER TMP - TEMPERATURE IN FAHRENHEIT DWPT - DEWPOINT IN FAHRENHEIT RH - RELATIVE HUMIDITY IN PERCENT WIND - DIRECTION AND SPEED IN MPH PRES - MEAN SEA LEVEL PRESSURE IN INCHES OF HG WCI - WIND CHILL INDEX VSB - VISIBILITY IN MILES HX - HEAT INDEX TC - TEMPERATURE IN CELSIUS VRB - VARIABLE WIND DIRECTION N/A - NOT AVAILABLE

USA.gov is the U.S. government's official web portal to all federal, state and local government web resources and services.